Content
SEND FEEDBACK

Daily
Averages
Monthly
Summary
Mexico

PUEBLA - JARDINES DE SAN MANUEL, PUEBLA


Home > North America > Mexico > Puebla
Elevation: 2122 meters     Latitude: 19 00N     Longitude: 098 11W

WEATHER
 
SELECT A DAY
Number of Records: 123,283;   Date Range: 1/1/95 - 9/29/14
 
SHARE

PRINT THIS DATA

[ ← Previous Day ]
WEATHER ALMANAC - 21 JUNE, 2013
[ Next Day → ]
[ °F ]   °C
Weather ElementAverageHighLow
Temperature15.2 °C20 °C (12:50 pm)13 °C (8:40 am)
Dewpoint13.2 °C15 °C (12:45 am)10 °C (12:50 pm)
Humidity87.8 %100 % (9:41 am)42 % (12:50 pm)
Barometer1023.7 hPa1028.8 hPa (10:43 am)1010.5 hPa (3:45 am)
Wind Speed6.1 km/h22.2 km/h (3:58 pm)
Weather ElementAverage
Visibility8 km
Wind DirectionSSE (142.8 °)

Weather ElementTotal
Precipitation---
Heating Degree Days1.8 (Base 18.3)
Growing Degree Days6.5 (Base 10)
Averaged from 35 records on 21 June, 2013
WEATHER CONDITIONS BREAKOUT
WIND DIRECTION BREAKOUT
WEATHER BY HOUR - 21 JUNE, 2013
[ °F ]   °C
Local TimeTemperatureDewpointHumidityBarometerVisibilityWind DirectionWind SpeedGust SpeedPrecipitationEventsConditions
12:43 AM14 °C13 °C94 %1027.4 hPa6.4 kmNW (310°)7.4 km/hRainLight Rain
12:45 AM15.6 °C15 °C96 %1011.2 hPa4.8 kmEast (90°)3.5 km/hOvercast
1:42 AM14 °C13 °C94 %1027.1 hPa9.7 kmWest (270°)7.4 km/hRainLight Rain
2:50 AM14 °C13 °C94 %1026.1 hPa11.3 kmWest (260°)7.4 km/hRainLight Rain
3:41 AM14 °C13 °C94 %1025.7 hPa8 kmCalmRainLight Rain
3:45 AM15 °C14.4 °C97 %1010.5 hPa4.8 kmCalmMostly Cloudy
4:43 AM14 °C13 °C94 %1025.7 hPa6.4 kmCalmRainLight Rain
5:58 AM14 °C13 °C94 %1026.1 hPa6.4 kmCalmRainLight Rain
6:43 AM14 °C13 °C94 %1026.1 hPa4.8 kmCalmRainLight Rain
6:45 AM14.4 °C13.9 °C96 %1010.5 hPa4.8 kmCalmRainLight Drizzle
7:40 AM14 °C13 °C94 %1027.1 hPa4.8 kmCalmOvercast
7:57 AM14 °C13 °C94 %1027.1 hPa1.3 kmCalmRainRain
8:40 AM13 °C12 °C94 %1027.8 hPa1.3 kmSE (140°)7.4 km/hRainRain
9:41 AM13 °C13 °C100 %1028.4 hPa4.8 kmSouth (180°)5.6 km/hRainLight Rain
9:50 AM15 °C13.9 °C92 %1013.2 hPa4.8 kmEast (90°)3.5 km/hHaze
10:43 AM15 °C13 °C88 %1028.8 hPa6.4 kmSSW (200°)5.6 km/hOvercast
11:44 AM16 °C13 °C82 %1028.4 hPa9.7 kmNNE (20°)5.6 km/hOvercast
12:50 PM20 °C10 °C42 %1012.9 hPa19.3 kmEast (90°)7.2 km/hMostly Cloudy
12:55 PM18 °C13 °C73 %1028.1 hPa9.7 kmNNE (30°)5.6 km/hOvercast
1:42 PM18 °C12 °C68 %1028.1 hPa9.7 kmWest (270°)11.1 km/hOvercast
2:46 PM20 °C14 °C68 %1027.1 hPa9.7 kmCalmOvercast
3:40 PM16.7 °C13.9 °C77 %1011.2 hPa9.7 kmSE (140°)3.5 km/hRainLight Rain
3:44 PM19 °C13 °C68 %1026.4 hPa9.7 kmSSW (200°)14.8 km/hOvercast
3:58 PM16 °C14 °C88 %1026.8 hPa8 kmEast (100°)22.2 km/hThunderstormThunderstorm
4:15 PM14 °C13 °C94 %1027.1 hPa6.4 kmEast (80°)18.5 km/hRain-ThunderstormThunderstorms and Rain
4:43 PM14 °C13 °C94 %1027.1 hPa6.4 kmESE (110°)16.7 km/hRain-ThunderstormThunderstorms and Rain
5:50 PM15 °C13 °C88 %1027.1 hPa8 kmENE (70°)14.8 km/hOvercast
6:40 PM16.1 °C14.4 °C86 %1010.5 hPa19.3 kmENE (70°)3.5 km/hRainLight Drizzle
6:45 PM15 °C13 °C88 %1027.1 hPa9.7 kmNW (310°)7.4 km/hOvercast
7:45 PM15 °C13 °C88 %1027.1 hPa9.7 kmNNW (330°)9.3 km/hOvercast
8:45 PM15 °C13 °C88 %1027.4 hPa9.7 kmWNW (290°)5.6 km/hOvercast
9:40 PM15 °C13 °C88 %1027.4 hPa9.7 kmNW (320°)5.6 km/hOvercast
9:45 PM15.6 °C15 °C95 %1010.8 hPa4.8 kmCalmOvercast
10:45 PM14 °C13 °C94 %1028.1 hPa9.7 kmNW (320°)7.4 km/hOvercast
11:40 PM14 °C13 °C94 %1028.4 hPa9.7 kmWest (280°)5.6 km/hOvercast
Hourly data recorded from MMPB, located 0 kilometers away from Puebla - Jardines de San Manuel, Puebla







STORIES FROM OUR PARTNERS